TimeEDT,TemperatureF,Dew PointF,Humidity,Sea Level PressureIn,VisibilityMPH,Wind Direction,Wind SpeedMPH,Gust SpeedMPH,PrecipitationIn,Events,Conditions,WindDirDegrees,DateUTC
12:56 AM,52.0,46.9,83,30.10,10.0,Calm,Calm,-,N/A,,Clear,0,2012-09-17 04:56:00
1:56 AM,48.9,46.9,93,30.11,10.0,Calm,Calm,-,N/A,,Clear,0,2012-09-17 05:56:00
2:56 AM,48.9,46.0,90,30.09,10.0,Calm,Calm,-,N/A,,Clear,0,2012-09-17 06:56:00
3:56 AM,48.9,46.0,90,30.09,10.0,Calm,Calm,-,N/A,,Clear,0,2012-09-17 07:56:00
4:56 AM,44.1,43.0,96,30.09,10.0,East,3.5,-,N/A,,Clear,80,2012-09-17 08:56:00
5:56 AM,46.0,44.1,93,30.09,8.0,ESE,3.5,-,N/A,,Clear,110,2012-09-17 09:56:00
6:40 AM,42.8,42.8,100,30.09,1.8,East,4.6,-,N/A,,Clear,80,2012-09-17 10:40:00
6:48 AM,44.6,42.8,93,30.09,3.0,East,4.6,-,N/A,,Clear,100,2012-09-17 10:48:00
6:56 AM,46.0,43.0,89,30.09,10.0,East,4.6,-,N/A,,Clear,100,2012-09-17 10:56:00
7:56 AM,46.9,44.1,90,30.10,9.0,East,4.6,-,N/A,,Clear,100,2012-09-17 11:56:00
8:56 AM,53.1,46.9,80,30.09,10.0,ESE,6.9,-,N/A,,Clear,110,2012-09-17 12:56:00
9:56 AM,57.9,46.9,67,30.08,10.0,SE,8.1,-,N/A,,Scattered Clouds,140,2012-09-17 13:56:00
10:56 AM,63.0,48.9,60,30.07,10.0,SSE,6.9,-,N/A,,Clear,150,2012-09-17 14:56:00
11:56 AM,66.0,46.9,50,30.05,10.0,SSE,9.2,17.3,N/A,,Partly Cloudy,150,2012-09-17 15:56:00
12:56 PM,66.9,48.0,51,30.03,10.0,SSE,9.2,-,N/A,,Clear,150,2012-09-17 16:56:00
1:56 PM,70.0,46.9,44,30.01,10.0,Variable,4.6,-,N/A,,Clear,0,2012-09-17 17:56:00
2:56 PM,71.1,48.0,44,29.98,10.0,South,8.1,-,N/A,,Clear,190,2012-09-17 18:56:00
3:56 PM,72.0,48.9,44,29.96,10.0,Variable,5.8,-,N/A,,Clear,0,2012-09-17 19:56:00
4:56 PM,71.1,48.0,44,29.96,10.0,Variable,5.8,-,N/A,,Clear,0,2012-09-17 20:56:00
5:56 PM,70.0,50.0,49,29.95,10.0,Calm,Calm,-,N/A,,Mostly Cloudy,0,2012-09-17 21:56:00
6:56 PM,68.0,51.1,55,29.94,10.0,SE,4.6,-,N/A,,Overcast,130,2012-09-17 22:56:00
7:56 PM,66.0,51.1,59,29.93,10.0,SSE,4.6,-,N/A,,Partly Cloudy,150,2012-09-17 23:56:00
8:56 PM,64.0,52.0,65,29.91,10.0,SE,6.9,-,N/A,,Clear,140,2012-09-18 00:56:00
9:56 PM,63.0,54.0,72,29.91,10.0,SE,6.9,-,N/A,,Clear,140,2012-09-18 01:56:00
10:56 PM,63.0,55.0,75,29.89,10.0,SE,8.1,-,N/A,,Overcast,130,2012-09-18 02:56:00